Terminal Aerodrome Forecast
Issued by NWS Tampa Bay Area, FL

Home | Current Version | Previous Version | Text Only | Print | Product List | Glossary On
Versions: 1 2 3 4 5 6 7 8 9 10 11 12 13 14 15 16
259
FTUS42 KTBW 020539
TAFFMY
TAF
KFMY 020539Z 0206/0306 11005KT P6SM FEW030 SCT050
     FM021500 15008KT P6SM SCT030 BKN050
     FM022000 23009KT P6SM VCTS SCT030CB BKN250
     FM030000 24007KT P6SM SCT030 BKN100
     FM030200 VRB05KT P6SM SCT030 BKN250=

USA.gov is the U.S. government's official web portal to all federal, state and local government web resources and services.